Santa Ynez, CA

8:39 AM PDT on August 28, 2016 (GMT -0700)
Santa Ynez

Weather History for KIZA - January, 2013

Change the Weather History Date:

Thursday, January 24, 2013

  Actual Average (KSBA) Record (KSBA)
Temperature  
Mean Temperature 56 °F 52 °F  
Max Temperature 60 °F 64 °F 79 °F (1951)
Min Temperature 53 °F 41 °F 30 °F (2002)
Degree Days  
Heating Degree Days 8 13  
Month to date heating degree days 312  
Since 1 July heating degree days 1196  
Cooling Degree Days 0 0  
Month to date cooling degree days 0  
Year to date cooling degree days 0  
Growing Degree Days 6 (Base 50)    
Moisture  
Dew Point 52 °F    
Average Humidity 86    
Maximum Humidity 94    
Minimum Humidity 67    
Precipitation  
Precipitation 0.39 in 0.10 in 4.03 in (1967)
Month to date precipitation 2.76  
Year to date precipitation 2.76  
Sea Level Pressure  
Sea Level Pressure 30.09 in    
Wind  
Wind Speed 11 mph (ESE)    
Max Wind Speed 26 mph    
Max Gust Speed 31 mph    
Visibility 9 miles    
Events Rain    
T = Trace of Precipitation, MM = Missing Value Source: NWS Daily Summary

Daily Weather History Graph

Daily Weather History Graph

Search for Another Location

Airport or City:

Trip Planner

Search our weather history database for the weather conditions in past years. The results will help you decide how hot, cold, wet, or windy it might be!

Date:

Astronomy

Jan. 24, 2013 Rise Set
Actual Time 7:03 AM PST 5:22 PM PST
Civil Twilight 6:36 AM PST 5:49 PM PST
Nautical Twilight 6:05 AM PST 6:19 PM PST
Astronomical Twilight 5:35 AM PST 6:49 PM PST
Moon 3:29 PM PST (1/24) 5:03 AM PST (1/24)
Length of Visible Light 11h 12m
Length of Day
10h 18m
Waxing Gibbous, 95% of the Moon is Illuminated
Jan 24
Waxing Gibbous
Jan 26
Full
Feb 3
Last Quarter
Feb 9
New
Feb 17
First Quarter

Hourly Weather History & Observations

Time (PST) Temp. Dew Point Humidity Pressure Visibility Wind Dir Wind Speed Gust Speed Precip Events Conditions
12:15 AM 57.2 °F 46.4 °F 67% 30.06 in 10.0 mi SE 20.7 mph 27.6 mph N/A   Mostly Cloudy
12:35 AM 59.0 °F 48.2 °F 67% 30.03 in 10.0 mi SE 21.9 mph 27.6 mph N/A   Overcast
12:55 AM 59.0 °F 48.2 °F 67% 30.05 in 10.0 mi SE 20.7 mph 27.6 mph N/A   Overcast
1:15 AM 59.0 °F 48.2 °F 67% 30.05 in 10.0 mi SE 26.5 mph 31.1 mph N/A   Overcast
1:35 AM 59.0 °F 50.0 °F 72% 30.05 in 10.0 mi SE 24.2 mph - N/A   Overcast
1:55 AM 55.4 °F 50.0 °F 82% 30.06 in 10.0 mi SE 15.0 mph 24.2 mph N/A Rain Light Rain
2:15 AM 55.4 °F 50.0 °F 82% 30.06 in 10.0 mi SE 15.0 mph - N/A Rain Rain
2:35 AM 55.4 °F 50.0 °F 82% 30.07 in 7.0 mi ESE 10.4 mph 20.7 mph N/A Rain Rain
2:55 AM 55.4 °F 51.8 °F 88% 30.07 in 10.0 mi SE 12.7 mph - 0.01 in Rain Rain
3:15 AM 55.4 °F 51.8 °F 88% 30.07 in 5.0 mi SE 8.1 mph - N/A   Drizzle
3:35 AM 55.4 °F 51.8 °F 88% 30.07 in 10.0 mi ESE 11.5 mph 17.3 mph 0.02 in Rain Light Rain
3:55 AM 55.4 °F 51.8 °F 88% 30.05 in 10.0 mi ESE 15.0 mph - 0.02 in Rain Light Rain
4:15 AM 55.4 °F 51.8 °F 88% 30.05 in 7.0 mi South 4.6 mph - 0.01 in Rain Heavy Rain
4:35 AM 55.4 °F 51.8 °F 88% 30.05 in 10.0 mi ESE 15.0 mph 18.4 mph 0.01 in Rain Rain
4:55 AM 55.4 °F 51.8 °F 88% 30.05 in 5.0 mi ESE 4.6 mph - 0.06 in Rain Rain
5:15 AM 53.6 °F 51.8 °F 94% 30.05 in 7.0 mi SE 4.6 mph - 0.02 in Rain Rain
5:35 AM 53.6 °F 51.8 °F 94% 30.05 in 10.0 mi Calm Calm - 0.02 in Rain Light Rain
5:55 AM 53.6 °F 51.8 °F 94% 30.05 in 10.0 mi Calm Calm - 0.02 in Rain Rain
6:15 AM 55.4 °F 51.8 °F 88% 30.06 in 7.0 mi ESE 4.6 mph - 0.02 in Rain Rain
6:35 AM 55.4 °F 51.8 °F 88% 30.07 in 10.0 mi South 3.5 mph - 0.05 in Rain Rain
6:55 AM 55.4 °F 51.8 °F 88% 30.07 in 10.0 mi East 3.5 mph - 0.08 in Rain Light Rain
7:15 AM 55.4 °F 51.8 °F 88% 30.07 in 10.0 mi East 3.5 mph - 0.01 in   Light Drizzle
7:35 AM 55.4 °F 53.6 °F 94% 30.07 in 10.0 mi SE 4.6 mph - 0.01 in   Overcast
7:55 AM 55.4 °F 51.8 °F 88% 30.08 in 10.0 mi Calm Calm - 0.01 in   Overcast
8:15 AM 55.4 °F 53.6 °F 94% 30.09 in 5.0 mi ESE 3.5 mph - 0.02 in Rain Light Rain
8:35 AM 55.4 °F 53.6 °F 94% 30.09 in 10.0 mi SE 6.9 mph - 0.02 in   Overcast
8:55 AM 57.2 °F 55.4 °F 94% 30.10 in 10.0 mi East 9.2 mph - 0.02 in   Drizzle
9:15 AM 59.0 °F 53.6 °F 82% 30.11 in 7.0 mi Calm Calm - 0.01 in Rain Rain
9:35 AM 59.0 °F 53.6 °F 82% 30.11 in 10.0 mi North 4.6 mph - 0.01 in Rain Light Rain
9:55 AM 59.0 °F 53.6 °F 82% 30.12 in 10.0 mi Calm Calm - 0.01 in Rain Rain
10:15 AM 59.0 °F 53.6 °F 82% 30.13 in 10.0 mi Calm Calm - N/A Rain Rain
10:35 AM 59.0 °F 55.4 °F 88% 30.13 in 5.0 mi West 3.5 mph - 0.02 in Rain Rain
10:55 AM 59.0 °F 55.4 °F 88% 30.14 in 4.0 mi Calm Calm - 0.03 in Rain Heavy Rain
11:15 AM 59.0 °F 55.4 °F 88% 30.13 in 7.0 mi South 4.6 mph - N/A Rain Rain
11:35 AM 59.0 °F 55.4 °F 88% 30.12 in 7.0 mi Calm Calm - 0.01 in   Overcast
11:55 AM 60.8 °F 55.4 °F 82% 30.11 in 10.0 mi East 5.8 mph - 0.01 in   Overcast
12:15 PM 60.8 °F 55.4 °F 82% 30.11 in 10.0 mi East 9.2 mph - N/A   Overcast
12:35 PM 60.8 °F 53.6 °F 77% 30.10 in 10.0 mi East 15.0 mph - N/A   Overcast
12:55 PM 59.0 °F 53.6 °F 82% 30.10 in 5.0 mi ESE 11.5 mph - N/A Rain Rain
1:15 PM 59.0 °F 53.6 °F 82% 30.10 in 5.0 mi ESE 3.5 mph - N/A   Drizzle
1:35 PM 59.0 °F 55.4 °F 88% 30.10 in 10.0 mi East 8.1 mph - N/A   Overcast
1:55 PM 59.0 °F 53.6 °F 82% 30.10 in 5.0 mi East 8.1 mph - 0.01 in Rain Rain
2:15 PM 59.0 °F 53.6 °F 82% 30.10 in 10.0 mi WSW 3.5 mph - 0.01 in   Light Drizzle
2:35 PM 59.0 °F 53.6 °F 82% 30.09 in 10.0 mi ENE 3.5 mph - 0.01 in   Overcast
2:55 PM 57.2 °F 51.8 °F 82% 30.09 in 10.0 mi ESE 9.2 mph - 0.01 in Rain Light Rain
3:15 PM 57.2 °F 53.6 °F 88% 30.11 in 10.0 mi SSW 3.5 mph - N/A   Light Drizzle
3:35 PM 55.4 °F 51.8 °F 88% 30.11 in 10.0 mi South 11.5 mph - N/A   Overcast
3:55 PM 57.2 °F 51.8 °F 82% 30.11 in 10.0 mi ESE 9.2 mph - N/A   Overcast
4:15 PM 57.2 °F 51.8 °F 82% 30.11 in 7.0 mi ENE 5.8 mph - 0.01 in Rain Rain
4:35 PM 55.4 °F 51.8 °F 88% 30.10 in 5.0 mi NE 6.9 mph - 0.06 in Rain Rain
4:55 PM 55.4 °F 51.8 °F 88% 30.10 in 10.0 mi East 15.0 mph - 0.07 in Rain Light Rain
5:15 PM 55.4 °F 51.8 °F 88% 30.10 in 10.0 mi East 15.0 mph - 0.01 in   Drizzle
5:35 PM 55.4 °F 51.8 °F 88% 30.09 in 10.0 mi East 12.7 mph - 0.02 in Rain Light Rain
5:55 PM 55.4 °F 51.8 °F 88% 30.09 in 10.0 mi East 17.3 mph - 0.03 in   Light Drizzle
6:15 PM 55.4 °F 51.8 °F 88% 30.09 in 10.0 mi ESE 15.0 mph 21.9 mph N/A   Mostly Cloudy
6:35 PM 57.2 °F 51.8 °F 82% 30.09 in 10.0 mi East 11.5 mph - N/A   Mostly Cloudy
6:55 PM 57.2 °F 51.8 °F 82% 30.09 in 10.0 mi East 6.9 mph - N/A   Scattered Clouds
7:15 PM 57.2 °F 51.8 °F 82% 30.11 in 10.0 mi East 5.8 mph - N/A   Mostly Cloudy
7:35 PM 55.4 °F 51.8 °F 88% 30.10 in 10.0 mi NE 4.6 mph - N/A   Overcast
7:55 PM 57.2 °F 51.8 °F 82% 30.11 in 10.0 mi East 5.8 mph - N/A Rain Light Rain
8:15 PM 55.4 °F 51.8 °F 88% 30.11 in 10.0 mi Calm Calm - N/A Rain Rain
8:35 PM 55.4 °F 53.6 °F 94% 30.11 in 10.0 mi North 3.5 mph - N/A Rain Light Rain
8:55 PM 55.4 °F 53.6 °F 94% 30.11 in 10.0 mi Calm Calm - N/A   Overcast
9:15 PM 55.4 °F 51.8 °F 88% 30.12 in 10.0 mi Calm Calm - N/A   Overcast
9:35 PM 55.4 °F 53.6 °F 94% 30.12 in 10.0 mi Calm Calm - N/A   Overcast
9:55 PM 55.4 °F 53.6 °F 94% 30.13 in 10.0 mi Calm Calm - N/A   Overcast
10:15 PM 55.4 °F 53.6 °F 94% 30.13 in 10.0 mi North 5.8 mph - N/A   Overcast
10:35 PM 55.4 °F 53.6 °F 94% 30.14 in 10.0 mi North 3.5 mph - N/A   Overcast
10:55 PM 55.4 °F 53.6 °F 94% 30.14 in 10.0 mi North 3.5 mph - N/A   Overcast
11:15 PM 55.4 °F 53.6 °F 94% 30.15 in 10.0 mi SW 3.5 mph - N/A   Overcast
11:35 PM 55.4 °F 53.6 °F 94% 30.14 in 10.0 mi NNW 3.5 mph - N/A   Overcast
11:55 PM 55.4 °F 53.6 °F 94% 30.14 in 10.0 mi Calm Calm - N/A   Overcast